Home   Weather   Vientiane   Past weeks

Flag for Laos Past Weather in Vientiane, Laos — Yesterday and Last 2 Weeks

Now
79 °F

Broken clouds.


Feels Like: 82 °F
Forecast: 76 / 87 °F
Wind: 2 mph from Southwest

Location: Vientiane Airport

Current Time: Sep 29, 2016 at 8:49:46 AM

Latest Report: Sep 29, 2016 at 8:00 AM


Visibility: 4 mi

Pressure: 29.77 "Hg

Humidity: 84%

Dew Point: 73 °F

Location of VientianeLocation

Past Weather in Vientiane — Graph

°F

Vientiane Temperature Yesterday

Maximum temperature yesterday: 95 °F (at 3:00 PM)
Minimum temperature yesterday: 79 °F (at 6:00 AM)
Average temperature yesterday: 88 °F

High & Low Weather Summary for the Past Weeks

 TemperatureHumidityPressure
High95 °F (Sep 28, 3:00 PM)100% (Sep 18, 7:00 AM)29.89 "Hg (Sep 18, 7:00 AM)
Low75 °F (Sep 14, 7:00 AM)52% (Sep 21, 3:00 PM)29.59 "Hg (Sep 28, 4:00 PM)
Average84 °F78%29.74 "Hg
* Reported Sep 14 7:00 AM — Sep 29 7:00 AM, Vientiane, Weather by CustomWeather, © 2016

Note: Actual official high and low records may vary slightly from our data, if they occured in-between our weather recording intervals... More about our weather records

Advertising

Vientiane Weather History for the Previous 24 Hours

Scroll right to see more
 ConditionsComfort  
Time TempWeatherWind HumidityBarometerVisibility
7:00 AM
Thu, Sep 29
77 °FFog.2 mph89%29.77 "Hg3 mi
6:00 AM75 °FFog.2 mph100%29.74 "Hg2 mi
12:00 AM86 °FFog.2 mph84%29.71 "Hg2 mi
11:00 PM
Wed, Sep 28
86 °FFog.2 mph84%29.71 "Hg2 mi
10:30 PM86 °FFog.2 mph84%29.68 "Hg2 mi
9:30 PM82 °FFog.2 mph84%29.68 "Hg2 mi
9:00 PM86 °FFog.2 mph84%29.68 "Hg2 mi
8:30 PM88 °FThunderstorms. Passing clouds.2 mph79%29.65 "Hg4 mi
8:00 PM88 °FThunderstorms. Passing clouds.2 mph79%29.65 "Hg4 mi
7:30 PM90 °FFog.2 mph71%29.62 "Hg3 mi
7:00 PM90 °FFog.2 mph71%29.62 "Hg3 mi
6:30 PM90 °FFog.2 mph67%29.65 "Hg3 mi
6:00 PM91 °FPassing clouds.2 mph67%29.62 "HgN/A
5:30 PM91 °FPassing clouds.2 mph67%29.62 "HgN/A
5:00 PM93 °FPassing clouds.2 mph63%29.59 "HgN/A
4:30 PM93 °FScattered clouds.2 mph63%29.59 "HgN/A
4:00 PM93 °FScattered clouds.2 mph63%29.59 "HgN/A
3:30 PM95 °FScattered clouds.5 mph60%29.62 "HgN/A
3:00 PM95 °FScattered clouds.2 mph60%29.62 "HgN/A
2:30 PM93 °FScattered clouds.2 mph63%29.65 "HgN/A
2:00 PM93 °FScattered clouds.2 mph63%29.65 "HgN/A
1:30 PM93 °FScattered clouds.5 mph59%29.68 "HgN/A
1:00 PM93 °FScattered clouds.5 mph59%29.68 "HgN/A
12:30 PM91 °FBroken clouds.2 mph63%29.71 "HgN/A
12:00 PM91 °FScattered clouds.2 mph63%29.71 "HgN/A
11:30 AM91 °FScattered clouds.2 mph67%29.74 "HgN/A
10:30 AM88 °FScattered clouds.2 mph70%29.77 "HgN/A
10:00 AM88 °FScattered clouds.2 mph70%29.77 "HgN/A
9:30 AM86 °FScattered clouds.2 mph75%29.77 "HgN/A
9:00 AM86 °FScattered clouds.2 mph75%29.77 "HgN/A
8:30 AM81 °FScattered clouds.2 mph89%29.74 "HgN/A
8:00 AM81 °FScattered clouds.2 mph89%29.74 "HgN/A
Weather by CustomWeather, © 2016

See weather overviewHow to use our weather pages